Time,TemperatureF,DewpointF,PressureIn,WindDirection,WindDirectionDegrees,WindSpeedMPH,WindSpeedGustMPH,Humidity,HourlyPrecipIn,Conditions,Clouds,dailyrainin,SoftwareType,DateUTC
2013-09-17 00:12:00,72.9,73.0,30.03,North,1,0.0,0.0,100,0.00,,,0.00,weatherlink.com 1.10,2013-09-17 05:12:00,
2013-09-17 00:27:00,72.8,73.0,30.03,North,1,0.0,0.0,100,0.00,,,0.00,weatherlink.com 1.10,2013-09-17 05:27:00,
2013-09-17 00:42:00,72.6,73.0,30.02,North,1,0.0,0.0,100,0.00,,,0.00,weatherlink.com 1.10,2013-09-17 05:42:00,
2013-09-17 00:57:00,72.3,72.0,30.02,North,1,0.0,0.0,100,0.00,,,0.00,weatherlink.com 1.10,2013-09-17 05:57:00,
2013-09-17 01:12:00,72.0,72.0,30.02,North,1,0.0,0.0,100,0.00,,,0.00,weatherlink.com 1.10,2013-09-17 06:12:00,
2013-09-17 01:27:00,71.9,72.0,30.02,North,1,0.0,0.0,100,0.00,,,0.00,weatherlink.com 1.10,2013-09-17 06:27:00,
2013-09-17 01:42:00,72.0,72.0,30.02,North,1,0.0,0.0,100,0.00,,,0.00,weatherlink.com 1.10,2013-09-17 06:42:00,
2013-09-17 01:57:00,72.0,72.0,30.02,North,1,0.0,0.0,100,0.00,,,0.00,weatherlink.com 1.10,2013-09-17 06:57:00,
2013-09-17 02:12:00,72.1,72.0,30.01,North,1,0.0,0.0,100,0.00,,,0.00,weatherlink.com 1.10,2013-09-17 07:12:00,
2013-09-17 02:27:00,71.8,72.0,30.01,North,1,0.0,0.0,100,0.00,,,0.00,weatherlink.com 1.10,2013-09-17 07:27:00,
2013-09-17 02:42:00,71.7,72.0,30.01,North,1,0.0,0.0,100,0.00,,,0.00,weatherlink.com 1.10,2013-09-17 07:42:00,
2013-09-17 02:57:00,71.7,72.0,30.01,North,1,0.0,0.0,100,0.00,,,0.00,weatherlink.com 1.10,2013-09-17 07:57:00,
2013-09-17 03:12:00,71.8,72.0,30.00,North,1,0.0,0.0,100,0.00,,,0.00,weatherlink.com 1.10,2013-09-17 08:12:00,
2013-09-17 03:27:00,71.5,72.0,30.00,North,1,0.0,0.0,100,0.00,,,0.00,weatherlink.com 1.10,2013-09-17 08:27:00,
2013-09-17 03:42:00,71.3,71.0,30.00,North,1,0.0,0.0,100,0.00,,,0.00,weatherlink.com 1.10,2013-09-17 08:42:00,
2013-09-17 03:57:00,71.6,72.0,30.00,North,1,0.0,0.0,100,0.00,,,0.00,weatherlink.com 1.10,2013-09-17 08:57:00,
2013-09-17 04:12:00,71.5,72.0,30.00,North,1,0.0,0.0,100,0.00,,,0.00,weatherlink.com 1.10,2013-09-17 09:12:00,
2013-09-17 04:27:00,71.5,72.0,30.00,North,1,0.0,0.0,100,0.00,,,0.00,weatherlink.com 1.10,2013-09-17 09:27:00,
2013-09-17 04:42:00,71.5,72.0,30.00,North,1,0.0,0.0,100,0.00,,,0.00,weatherlink.com 1.10,2013-09-17 09:42:00,
2013-09-17 04:57:00,71.3,71.0,30.00,North,1,0.0,0.0,100,0.00,,,0.00,weatherlink.com 1.10,2013-09-17 09:57:00,
2013-09-17 05:12:00,71.2,71.0,30.00,North,1,0.0,0.0,100,0.00,,,0.00,weatherlink.com 1.10,2013-09-17 10:12:00,
2013-09-17 05:27:00,71.4,71.0,30.01,North,1,0.0,0.0,100,0.00,,,0.00,weatherlink.com 1.10,2013-09-17 10:27:00,
2013-09-17 05:42:00,71.3,71.0,30.01,ENE,64,0.0,0.0,100,0.00,,,0.00,weatherlink.com 1.10,2013-09-17 10:42:00,
2013-09-17 05:57:00,71.1,71.0,30.01,ENE,63,0.0,0.0,100,0.00,,,0.00,weatherlink.com 1.10,2013-09-17 10:57:00,
2013-09-17 06:12:00,71.0,71.0,30.02,ENE,72,0.0,0.0,100,0.00,,,0.00,weatherlink.com 1.10,2013-09-17 11:12:00,
2013-09-17 06:27:00,71.0,71.0,30.02,ENE,71,0.0,1.0,100,0.00,,,0.00,weatherlink.com 1.10,2013-09-17 11:27:00,
2013-09-17 06:42:00,71.0,71.0,30.03,NE,48,0.0,1.0,100,0.01,,,0.01,weatherlink.com 1.10,2013-09-17 11:42:00,
2013-09-17 06:57:00,71.1,71.0,30.03,NE,51,0.0,1.0,100,0.01,,,0.01,weatherlink.com 1.10,2013-09-17 11:57:00,
2013-09-17 07:12:00,71.3,71.0,30.04,NE,51,0.0,0.0,100,0.01,,,0.01,weatherlink.com 1.10,2013-09-17 12:12:00,
2013-09-17 07:42:00,72.8,73.0,30.04,NE,48,0.0,1.0,100,0.00,,,0.01,weatherlink.com 1.10,2013-09-17 12:42:00,
2013-09-17 07:57:00,73.7,74.0,30.04,NNE,33,0.0,2.0,100,0.00,,,0.01,weatherlink.com 1.10,2013-09-17 12:57:00,
2013-09-17 08:12:00,74.8,75.0,30.04,ENE,65,0.0,5.0,99,0.00,,,0.01,weatherlink.com 1.10,2013-09-17 13:12:00,
2013-09-17 08:27:00,76.5,75.0,30.05,NE,46,0.0,3.0,95,0.00,,,0.01,weatherlink.com 1.10,2013-09-17 13:27:00,
2013-09-17 08:43:00,78.0,75.0,30.05,ENE,58,3.0,5.0,89,0.00,,,0.01,weatherlink.com 1.10,2013-09-17 13:43:00,
2013-09-17 08:58:00,79.0,75.0,30.06,East,86,1.0,4.0,87,0.00,,,0.01,weatherlink.com 1.10,2013-09-17 13:58:00,
2013-09-17 09:13:00,80.1,75.0,30.06,ENE,76,2.0,5.0,85,0.00,,,0.01,weatherlink.com 1.10,2013-09-17 14:13:00,
2013-09-17 09:28:00,81.3,76.0,30.06,East,89,0.0,5.0,83,0.00,,,0.01,weatherlink.com 1.10,2013-09-17 14:28:00,
2013-09-17 09:43:00,82.3,76.0,30.06,East,95,0.0,6.0,82,0.00,,,0.01,weatherlink.com 1.10,2013-09-17 14:43:00,
2013-09-17 09:58:00,83.9,77.0,30.06,NE,51,3.0,5.0,80,0.00,,,0.01,weatherlink.com 1.10,2013-09-17 14:58:00,
2013-09-17 10:13:00,85.1,76.0,30.06,NNE,20,4.0,6.0,75,0.00,,,0.01,weatherlink.com 1.10,2013-09-17 15:13:00,
2013-09-17 10:28:00,85.6,76.0,30.06,NNE,31,2.0,7.0,74,0.00,,,0.01,weatherlink.com 1.10,2013-09-17 15:28:00,
2013-09-17 10:43:00,86.3,77.0,30.06,ENE,58,3.0,8.0,73,0.00,,,0.01,weatherlink.com 1.10,2013-09-17 15:43:00,
2013-09-17 10:58:00,86.6,77.0,30.06,East,79,4.0,7.0,72,0.00,,,0.01,weatherlink.com 1.10,2013-09-17 15:58:00,
2013-09-17 11:13:00,87.1,75.0,30.06,NE,39,5.0,10.0,67,0.00,,,0.01,weatherlink.com 1.10,2013-09-17 16:13:00,
2013-09-17 11:28:00,87.7,75.0,30.05,ENE,70,4.0,8.0,66,0.00,,,0.01,weatherlink.com 1.10,2013-09-17 16:28:00,
2013-09-17 11:43:00,88.3,75.0,30.05,East,101,2.0,8.0,64,0.00,,,0.01,weatherlink.com 1.10,2013-09-17 16:43:00,
2013-09-17 11:58:00,88.8,75.0,30.05,ENE,70,6.0,7.0,63,0.00,,,0.01,weatherlink.com 1.10,2013-09-17 16:58:00,
2013-09-17 12:13:00,89.5,75.0,30.05,NE,43,0.0,7.0,63,0.00,,,0.01,weatherlink.com 1.10,2013-09-17 17:13:00,
2013-09-17 12:28:00,89.7,75.0,30.04,NE,56,3.0,7.0,62,0.00,,,0.01,weatherlink.com 1.10,2013-09-17 17:28:00,
2013-09-17 12:43:00,90.3,77.0,30.03,ESE,111,2.0,9.0,64,0.00,,,0.01,weatherlink.com 1.10,2013-09-17 17:43:00,
2013-09-17 12:58:00,89.1,75.0,30.02,ENE,58,4.0,5.0,63,0.00,,,0.01,weatherlink.com 1.10,2013-09-17 17:58:00,
2013-09-17 13:13:00,88.6,76.0,30.02,SE,146,0.0,0.0,66,0.00,,,0.01,weatherlink.com 1.10,2013-09-17 18:13:00,
2013-09-17 13:28:00,88.6,76.0,30.01,East,82,0.0,1.0,67,0.00,,,0.01,weatherlink.com 1.10,2013-09-17 18:28:00,
2013-09-17 13:43:00,88.9,76.0,30.01,NNE,33,3.0,4.0,66,0.00,,,0.01,weatherlink.com 1.10,2013-09-17 18:43:00,
2013-09-17 13:58:00,88.1,76.0,30.00,NNE,18,0.0,1.0,67,0.00,,,0.01,weatherlink.com 1.10,2013-09-17 18:58:00,
2013-09-17 14:13:00,90.0,76.0,30.00,ESE,119,0.0,3.0,64,0.00,,,0.01,weatherlink.com 1.10,2013-09-17 19:13:00,
2013-09-17 14:28:00,85.4,78.0,29.99,SE,124,0.0,3.0,79,0.01,,,0.02,weatherlink.com 1.10,2013-09-17 19:28:00,
2013-09-17 14:43:00,83.3,79.0,29.98,SW,233,0.0,0.0,87,0.01,,,0.02,weatherlink.com 1.10,2013-09-17 19:43:00,
2013-09-17 14:58:00,83.3,78.0,29.98,WSW,240,0.0,1.0,85,0.01,,,0.02,weatherlink.com 1.10,2013-09-17 19:58:00,
2013-09-17 15:13:00,83.5,79.0,29.97,SSE,150,0.0,1.0,85,0.01,,,0.02,weatherlink.com 1.10,2013-09-17 20:13:00,
2013-09-17 15:28:00,84.5,79.0,29.97,SSE,156,0.0,1.0,84,0.00,,,0.02,weatherlink.com 1.10,2013-09-17 20:28:00,
2013-09-17 15:43:00,87.3,80.0,29.96,South,184,1.0,3.0,78,0.00,,,0.02,weatherlink.com 1.10,2013-09-17 20:43:00,
2013-09-17 15:59:00,89.0,81.0,29.96,SE,143,3.0,4.0,76,0.00,,,0.02,weatherlink.com 1.10,2013-09-17 20:59:00,
2013-09-17 16:14:00,89.7,80.0,29.96,WSW,243,0.0,5.0,72,0.00,,,0.02,weatherlink.com 1.10,2013-09-17 21:14:00,
2013-09-17 16:29:00,90.0,79.0,29.96,SSE,147,2.0,4.0,69,0.00,,,0.02,weatherlink.com 1.10,2013-09-17 21:29:00,
2013-09-17 16:44:00,89.8,79.0,29.95,East,101,0.0,5.0,70,0.00,,,0.02,weatherlink.com 1.10,2013-09-17 21:44:00,
2013-09-17 16:59:00,89.2,77.0,29.96,NE,55,1.0,5.0,68,0.00,,,0.02,weatherlink.com 1.10,2013-09-17 21:59:00,
2013-09-17 17:14:00,89.3,78.0,29.96,ENE,77,0.0,6.0,69,0.00,,,0.02,weatherlink.com 1.10,2013-09-17 22:14:00,
2013-09-17 17:29:00,85.6,76.0,29.97,East,87,0.0,9.0,72,0.00,,,0.02,weatherlink.com 1.10,2013-09-17 22:29:00,
2013-09-17 17:44:00,83.0,76.0,29.97,ESE,107,0.0,1.0,79,0.00,,,0.02,weatherlink.com 1.10,2013-09-17 22:44:00,
2013-09-17 17:59:00,80.6,74.0,29.97,East,87,2.0,8.0,79,0.00,,,0.02,weatherlink.com 1.10,2013-09-17 22:59:00,
2013-09-17 18:14:00,79.2,74.0,29.96,NE,38,0.0,2.0,84,0.00,,,0.02,weatherlink.com 1.10,2013-09-17 23:14:00,
2013-09-17 18:29:00,78.6,75.0,29.97,ESE,113,0.0,1.0,88,0.00,,,0.02,weatherlink.com 1.10,2013-09-17 23:29:00,
2013-09-17 18:44:00,78.6,75.0,29.96,SSE,150,1.0,3.0,87,0.00,,,0.02,weatherlink.com 1.10,2013-09-17 23:44:00,
2013-09-17 18:59:00,78.5,74.0,29.96,ESE,108,1.0,2.0,85,0.00,,,0.02,weatherlink.com 1.10,2013-09-17 23:59:00,
2013-09-17 19:14:00,78.3,74.0,29.96,SSE,149,0.0,1.0,86,0.00,,,0.02,weatherlink.com 1.10,2013-09-18 00:14:00,
2013-09-17 19:29:00,78.1,74.0,29.96,South,191,0.0,1.0,87,0.00,,,0.02,weatherlink.com 1.10,2013-09-18 00:29:00,
2013-09-17 19:44:00,77.5,74.0,29.97,SSW,193,0.0,0.0,89,0.00,,,0.02,weatherlink.com 1.10,2013-09-18 00:44:00,
2013-09-17 19:59:00,76.9,74.0,29.98,SSW,193,0.0,0.0,91,0.00,,,0.02,weatherlink.com 1.10,2013-09-18 00:59:00,
2013-09-17 20:14:00,76.7,74.0,29.98,SSW,193,0.0,0.0,92,0.00,,,0.02,weatherlink.com 1.10,2013-09-18 01:14:00,
2013-09-17 20:29:00,76.2,74.0,29.99,SSW,193,0.0,0.0,93,0.00,,,0.02,weatherlink.com 1.10,2013-09-18 01:29:00,
2013-09-17 20:44:00,75.9,74.0,29.99,SSW,193,0.0,0.0,95,0.00,,,0.02,weatherlink.com 1.10,2013-09-18 01:44:00,
2013-09-17 20:59:00,75.8,75.0,29.99,SSW,193,0.0,0.0,96,0.00,,,0.02,weatherlink.com 1.10,2013-09-18 01:59:00,
2013-09-17 21:14:00,75.5,74.0,30.00,SSW,193,0.0,0.0,96,0.00,,,0.02,weatherlink.com 1.10,2013-09-18 02:14:00,
2013-09-17 21:29:00,75.2,74.0,30.00,SSW,193,0.0,0.0,97,0.00,,,0.02,weatherlink.com 1.10,2013-09-18 02:29:00,
2013-09-17 21:44:00,74.9,74.0,30.01,SSW,193,0.0,0.0,97,0.00,,,0.02,weatherlink.com 1.10,2013-09-18 02:44:00,
2013-09-17 21:59:00,75.0,74.0,30.01,South,190,0.0,0.0,97,0.00,,,0.02,weatherlink.com 1.10,2013-09-18 02:59:00,
2013-09-17 22:14:00,75.0,74.0,30.01,South,181,0.0,0.0,96,0.00,,,0.02,weatherlink.com 1.10,2013-09-18 03:14:00,
2013-09-17 22:29:00,75.0,74.0,30.01,South,183,0.0,0.0,96,0.00,,,0.02,weatherlink.com 1.10,2013-09-18 03:29:00,
2013-09-17 22:44:00,74.6,74.0,30.01,South,184,0.0,0.0,97,0.00,,,0.02,weatherlink.com 1.10,2013-09-18 03:44:00,
2013-09-17 22:59:00,74.5,74.0,30.01,South,173,0.0,0.0,97,0.00,,,0.02,weatherlink.com 1.10,2013-09-18 03:59:00,
2013-09-17 23:14:00,74.4,74.0,30.01,South,173,0.0,0.0,98,0.00,,,0.02,weatherlink.com 1.10,2013-09-18 04:14:00,
2013-09-17 23:29:00,74.2,74.0,30.01,South,172,0.0,0.0,98,0.00,,,0.02,weatherlink.com 1.10,2013-09-18 04:29:00,
2013-09-17 23:44:00,74.6,74.0,30.01,NE,37,0.0,1.0,99,0.00,,,0.02,weatherlink.com 1.10,2013-09-18 04:44:00,
2013-09-17 23:59:00,75.1,75.0,30.01,NE,54,0.0,1.0,99,0.00,,,0.02,weatherlink.com 1.10,2013-09-18 04:59:00,